Preview of NWS' New Version of Forecast
This preview is not operational and should not be used for support decisions.
Latest weather observations around

John C Tune Airport (KJWN)

Using English Units (Switch to International System of Units)
Date/ Time (CDT) Wind (mph) Vis. (mi) Weather Sky Cond. Temp (°F) Rel. Humidity Wind Chill (°F) Heat Index (°F) Pressure Precip. (in)
Air Dwpt 6 hour Altimeter (inHg) Sea level (inHg) 1 hr 3 hr 6 hr
Max Min
Jun 20 03:55 SW 9 10 Mostly Cloudy FEW037 SCT055 BKN080 73 72     94%   75 29.66   0    
Jun 20 03:35 SSW 9 10 Mostly Cloudy FEW037 SCT055 BKN075 75 72     89%   77 29.65        
Jun 20 03:15 SSW 10 10 Cloudy BKN075 OVC100 73 72     94%   75 29.64        
Jun 20 02:55 SSW 3 10 Mostly Cloudy BKN100 72 70     94%   73 29.66   0    
Jun 20 02:35 Calm 8 Cloudy SCT050 SCT060 OVC110 72 70     94%   73 29.65        
Jun 20 02:15 Calm 10 Mostly Cloudy SCT050 BKN060 72 70     94%   73 29.65        
Jun 20 01:55 Calm 10 Clear CLR 72 70     94%   73 29.66   0    
Jun 20 01:40 Calm 10 Clear CLR 70 70     100%     29.66        
Jun 20 01:20 Calm 7 Clear CLR 72 70     94%   73 29.66        
Jun 20 01:00 Calm 7 Partly Cloudy FEW049 FEW055 SCT110 72 70     94%   73 29.67        
Jun 20 00:40 Calm 8 Mostly Cloudy FEW055 SCT075 BKN110 72 70     94%   73 29.68        
Jun 20 00:20 Calm 7 Partly Cloudy FEW032 SCT055 SCT065 72 70     94%   73 29.69        
Jun 20 00:00 SSE 3 9 Mostly Cloudy FEW003 SCT028 BKN038 72 70     94%   73 29.7        
Jun 19 23:40 Calm 0.25 Fog BKN003 BKN027 OVC042 72 70     94%   73 29.7        
Jun 19 23:20 S 3 8 Mostly Cloudy FEW040 SCT055 BKN070 72 70     94%   73 29.7        
Jun 19 23:00 S 5 7 Mostly Cloudy FEW038 SCT060 BKN075 72 70     94%   73 29.7        
Jun 19 22:40 Calm 6 Fog/Mist SCT038 BKN055 72 70     94%   73 29.7        
Jun 19 22:20 Calm 10 Mostly Cloudy BKN040 BKN049 BKN055 72 70     94%   73 29.7        
Jun 19 22:00 SSE 3 10 Mostly Cloudy FEW005 SCT042 BKN050 72 70     94%   73 29.7        
Jun 19 21:40 S 5 10 Mostly Cloudy SCT005 BKN055 BKN065 72 70     94%   73 29.7        
Jun 19 21:20 S 3 7 Mostly Cloudy SCT004 SCT007 BKN065 72 70     94%   73 29.7        
Jun 19 21:00 Calm 10 Mostly Clear FEW070 FEW080 72 70     94%   73 29.7        
Jun 19 20:40 Calm 10 Mostly Cloudy FEW035 SCT044 BKN070 72 70     94%   73 29.7        
Jun 19 20:20 Calm 10 Mostly Cloudy FEW015 SCT022 BKN044 72 70     94%   73 29.71        
Jun 19 20:00 N 7 3 Fog/Mist FEW003 BKN016 OVC045 72 70     94%   73 29.72        
Jun 19 19:40 WNW 11 7 Cloudy SCT023 BKN044 OVC070 73 72     94%   75 29.72        
Jun 19 19:20 Calm 8 Mostly Cloudy FEW005 SCT027 BKN060 75 72     89%   77 29.7        
Jun 19 19:00   7 Cloudy FEW003 BKN039 OVC110 79 73     84%   82 29.7        
Jun 19 18:40 SSW 9 8 Mostly Cloudy FEW039 SCT065 BKN110 82 72     70%   87 29.68        
Jun 19 18:20 SSW 8 10 Clear CLR 84 70     62%   88 29.67        
Jun 19 18:00 SSW 11 9 Clear CLR 86 70     59%   91 29.67        
Jun 19 17:40 SSW 13 10 Mostly Clear FEW041 88 70     55%   93 29.68        
Jun 19 17:20 SW 11 10 Clear CLR 88 72     59%   94 29.69        
Jun 19 17:00 SW 9 9 Mostly Clear FEW050 FEW070 88 72     59%   94 29.69        
Jun 19 16:40 SW 10 10 Clear CLR 86 70     59%   91 29.69        
Jun 19 16:20   8 Clear CLR 88 70     55%   93 29.69        
Jun 19 16:00 SW 11 9 Clear CLR 88 70     55%   93 29.69        
Jun 19 15:40 WSW 8 9 Mostly Clear FEW039 86 70     59%   91 29.7        
Jun 19 15:20 SSW 13 9 Mostly Clear FEW039 FEW048 86 70     59%   91 29.71        
Jun 19 15:00 SW 10 9 Mostly Clear FEW044 FEW050 86 70     59%   91 29.72        
Jun 19 14:40 SW 14 9 Partly Cloudy FEW038 SCT045 SCT055 88 72     59%   94 29.73        
Jun 19 14:20 SW 10 8 Mostly Clear FEW039 FEW047 86 70     59%   91 29.73        
Jun 19 14:00 SW 8 9 Clear CLR 88 70     55%   93 29.74        
Jun 19 13:40 SW 9 7 Mostly Clear FEW038 FEW044 FEW050 86 70     59%   91 29.75        
Jun 19 13:20 SW 13 10 Partly Cloudy FEW040 SCT046 SCT075 86 70     59%   91 29.75        
Jun 19 13:00 WSW 10 4 Haze SCT042 86 70     59%   91 29.76        
Jun 19 12:40 SSW 13 3 Haze CLR 86 70     59%   91 29.77        
Jun 19 12:20 SW 8 9 Mostly Clear FEW030 FEW050 86 72     62%   92 29.78        
Jun 19 12:00 SSW 10 8 Partly Cloudy SCT031 SCT100 86 72     62%   92 29.79        
Jun 19 11:40 SSW 14 9 Partly Cloudy FEW029 SCT034 SCT100 84 70     62%   88 29.79        
Jun 19 11:20 SSW 9 9 Partly Cloudy SCT026 SCT045 84 72     66%   90 29.8        
Jun 19 11:00 WSW 11 9 Mostly Cloudy SCT024 SCT028 BKN037 82 72     70%   87 29.81        
Jun 19 10:40 SW 10 9 Mostly Cloudy FEW022 SCT028 BKN055 82 72     70%   87 29.81        
Jun 19 10:20 WSW 11 9 Mostly Cloudy BKN020 BKN029 BKN060 81 72     74%   85 29.82        
Jun 19 10:00 SW 8 9 Mostly Cloudy BKN018 BKN022 BKN029 81 72     74%   85 29.82        
Jun 19 09:40 SSW 8 10 Cloudy BKN017 BKN021 OVC041 81 72     74%   85 29.82        
Jun 19 09:20 SW 8 9 Cloudy SCT013 BKN033 OVC060 79 72     79%   82 29.82        
Jun 19 09:00 SSW 10 9 Cloudy BKN014 BKN023 OVC028 77 72     83%   78 29.82        
Jun 19 08:40 S 7 9 Mostly Cloudy SCT013 BKN024 BKN028 77 72     83%   78 29.82        
Jun 19 08:20 SW 6 9 Mostly Cloudy FEW023 SCT037 BKN100 75 72     89%   77 29.82        
Jun 19 08:00 S 5 6 Fog/Mist FEW008 SCT015 BKN100 75 72     89%   77 29.82        
Jun 19 07:40 SSW 6 9 Cloudy OVC007 75 72     89%   77 29.82        
Jun 19 07:20 SSW 5 10 Cloudy OVC007 73 72     94%   75 29.81        
Jun 19 07:00 S 3 10 Cloudy OVC006 73 72     94%   75 29.81        
Jun 19 06:40 Calm 10 Cloudy OVC007 73 70     89%   75 29.81        
Jun 19 06:20 SSW 5 9 Cloudy OVC007 72 70     94%   73 29.81        
Jun 19 06:00 SSW 3 9 Cloudy OVC006 72 70     94%   73 29.81        
Jun 19 05:40 SSW 6 9 Cloudy OVC006 72 70     94%   73 29.82        
Jun 19 05:20 SSW 5 8 Cloudy OVC006 72 70     94%   73 29.82        
Jun 19 05:00 Calm 10 Cloudy OVC007 72 70     94%   73 29.81        
Jun 19 04:40 SSW 5 10 Cloudy OVC007 72 70     94%   73 29.81        
Jun 19 04:20 S 5 8 Cloudy OVC007 72 70     94%   73 29.81        
Jun 19 04:00 Calm 7 Cloudy OVC007 73 70     89%   75 29.81        
Jun 19 03:40 Calm 10 Cloudy OVC007 73 70     89%   75 29.81        
Jun 19 03:20 SSW 3 9 Cloudy OVC008 73 70     89%   75 29.81        
Jun 19 03:00 Calm 3 Fog/Mist OVC008 72 70     94%   73 29.81        
Jun 19 02:40 Calm 10 Cloudy OVC008 72 70     94%   73 29.82        
Jun 19 02:20 Calm 10 Cloudy OVC010 72 70     94%   73 29.82        
Jun 19 02:00 Calm 10 Cloudy OVC011 70 70     100%     29.83        
Jun 19 01:40 Calm 10 Cloudy BKN012 OVC060 70 70     100%     29.83        
Jun 19 01:20 Calm 10 Mostly Cloudy BKN060 72 70     94%   73 29.84        
Jun 19 01:00 Calm 10 Clear CLR 72 70     94%   73 29.83        
Jun 19 00:40 Calm 10 Clear CLR 72 70     94%   73 29.84        
Jun 19 00:20 Calm 10 Clear CLR 70 68     94%     29.84        
Jun 19 00:00 Calm 10 Clear CLR 72 70     94%   73 29.85        
Jun 18 23:40 N 3 10 Clear CLR 72 70     94%   73 29.85        
Jun 18 23:20 Calm 10 Clear CLR 72 70     94%   73 29.85        
Jun 18 23:00 N 3 10 Clear CLR 72 70     94%   73 29.85        
Jun 18 22:40 Calm 10 Clear CLR 72 70     94%   73 29.84        
Jun 18 22:20 Calm 10 Mostly Clear FEW035 FEW048 73 70     89%   75 29.84        
Jun 18 22:00 Calm 10 Mostly Clear FEW049 73 70     89%   75 29.84        
Jun 18 21:40 Calm 10 Mostly Clear FEW090 73 70     89%   75 29.84        
Jun 18 21:20 W 5 10 Mostly Cloudy BKN090 73 70     89%   75 29.83        
Jun 18 21:00 Calm 10 Clear CLR 75 70     83%   76 29.83        
Jun 18 20:40 Calm 10 Clear CLR 73 70     89%   75 29.83        
Jun 18 20:20 Calm 10 Mostly Clear FEW095 75 70     83%   76 29.83        
Jun 18 20:00 Calm 10 Mostly Cloudy SCT095 BKN120 77 68     74%   78 29.83        
Jun 18 19:40 Calm 9 Mostly Cloudy SCT095 BKN120 77 68     74%   78 29.83        
Jun 18 19:20 Calm 10 Cloudy OVC090 77 70     78%   78 29.83        
Jun 18 19:00 WNW 6 8 Cloudy OVC100 77 70     78%   78 29.83        
Jun 18 18:40 WNW 8 10 Mostly Cloudy BKN110 77 72     83%   78 29.83        
Jun 18 18:20 NW 10 10 Partly Cloudy SCT060 SCT080 SCT120 81 72     74%   85 29.84        
Jun 18 18:00 NW 3 10 Mostly Cloudy SCT049 BKN060 BKN120 81 72     74%   85 29.83        
Jun 18 17:40 Calm 9 Partly Cloudy SCT050 SCT060 SCT120 82 70     66%   86 29.83        
Jun 18 17:20 Calm 10 Mostly Cloudy SCT050 BKN060 BKN075 82 70     66%   86 29.83        
Jun 18 17:00 W 5 10 Mostly Clear FEW050 FEW060 FEW075 82 70     66%   86 29.84        
Jun 18 16:40 W 6 9 Partly Cloudy FEW041 FEW050 SCT060 84 70     62%   88 29.84        
Jun 18 16:20 SW 5 10 Partly Cloudy FEW041 SCT050 SCT060 84 70     62%   88 29.85        
Jun 18 16:00 Calm 6 Haze FEW032 84 70     62%   88 29.85        
Jun 18 15:40 SSW 10 1 Haze BKN033 BKN043 84 70     62%   88 29.86        
Jun 18 15:20 SW 9 10 Partly Cloudy FEW034 SCT043 84 70     62%   88 29.86        
Jun 18 15:00 SSW 10 9 Partly Cloudy FEW027 SCT034 84 70     62%   88 29.87        
Jun 18 14:40 SSW 10 9 Mostly Clear FEW026 FEW032 84 70     62%   88 29.88        
Jun 18 14:20 SW 10 9 Partly Cloudy SCT026 SCT032 82 70     66%   86 29.88        
Jun 18 14:00 SW 11 5 Haze FEW024 SCT031 82 70     66%   86 29.89        
Jun 18 13:40 SSW 11 9 Clear CLR 82 72     70%   87 29.9        
Jun 18 13:20 SW 14 7 Clear CLR 81 70     70%   84 29.91        
Jun 18 13:00 SSW 13 8 Mostly Clear FEW020 79 70     74%   80 29.92        
Jun 18 12:40   9 Mostly Clear FEW020 79 70     74%   80 29.92        
Jun 18 12:20 SSW 10 9 Mostly Clear FEW018 FEW026 79 70     74%   80 29.93        
Jun 18 12:00 6 9 Mostly Cloudy SCT020 BKN026 79 72     79%   82 29.94        
Jun 18 11:40 SSW 9 9 Mostly Cloudy SCT018 BKN023 79 70     74%   80 29.94        
Jun 18 11:20 S 9 10 Mostly Cloudy BKN014 BKN021 77 72     83%   78 29.94        
Jun 18 11:00 SSE 8 7 Mostly Cloudy BKN013 77 72     83%   78 29.94        
Jun 18 10:40 6 10 Cloudy BKN013 OVC018 75 72     89%   77 29.94        
Jun 18 10:20 SSE 5 10 Cloudy BKN013 OVC018 75 72     89%   77 29.95        
Jun 18 10:00 Calm 6 Fog/Mist OVC011 73 72     94%   75 29.95        
Jun 18 09:40 Calm 9 Cloudy BKN012 OVC030 73 70     89%   75 29.95        
Jun 18 09:20 SSE 6 3 Fog/Mist FEW007 BKN013 OVC018 72 70     94%   73 29.96        
Jun 18 09:00 SE 5 9 Cloudy SCT006 BKN018 OVC030 72 70     94%   73 29.97        
Jun 18 08:40 ESE 3 10 Cloudy FEW006 SCT022 OVC031 72 70     94%   73 29.96        
Jun 18 08:20 ENE 3 10 Cloudy BKN032 OVC037 72 70     94%   73 29.96        
Jun 18 08:00 Calm 10 Mostly Cloudy FEW024 BKN034 BKN055 70 70     100%     29.96        
Jun 18 07:40 ENE 5 4 Fog/Mist FEW004 BKN027 OVC065 70 70     100%     29.96        
Jun 18 07:20 Calm 1 Fog/Mist BKN007 BKN012 OVC037 70 70     100%     29.97        
Jun 18 07:00 N 5 10 Mostly Cloudy FEW005 BKN036 BKN046 70 70     100%     29.96        
Jun 18 06:40 NE 5 1 Fog/Mist SCT004 SCT034 BKN055 70 68     94%     29.95        
Jun 18 06:20 NE 5 10 Mostly Cloudy FEW044 SCT090 BKN120 70 68     94%     29.95        
Jun 18 06:00 Calm 2.5 Fog/Mist FEW006 SCT043 BKN070 70 68     94%     29.95        
Jun 18 05:40 Calm 10 Mostly Cloudy FEW004 SCT030 BKN041 70 68     94%     29.96        
Jun 18 05:20 Calm 0.25 Fog OVC003 70 68     94%     29.95        
Jun 18 05:00 W 10 0.25 Fog OVC003 70 68     94%     29.96        
Jun 18 04:40 Calm 4 Fog/Mist FEW006 BKN040 OVC065 70 70     100%     29.93        
Jun 18 04:20 Calm 9 Cloudy FEW041 BKN060 OVC110 70 70     100%     29.92        
Jun 18 04:00 NE 3 3 Fog/Mist FEW006 SCT055 BKN065 72 70     94%   73 29.92        
Jun 18 03:40 Calm 10 Mostly Cloudy FEW039 SCT055 BKN070 72 68     88%   73 29.94        
Jun 18 03:20 E 3 10 Mostly Cloudy FEW038 SCT055 BKN070 72 70     94%   73 29.94        
Jun 18 03:00 E 3 8 Mostly Cloudy FEW011 SCT055 BKN075 72 70     94%   73 29.94        
Jun 18 02:40 3 10 Cloudy BKN075 OVC090 72 70     94%   73 29.95        
Jun 18 02:20 SE 6 9 Cloudy FEW006 BKN075 OVC110 72 70     94%   73 29.95        
Jun 18 02:00 Calm 5 Fog/Mist   72 70     94%   73 29.95        
Jun 18 01:40 Calm 6 Fog/Mist FEW031 BKN065 OVC100 72 70     94%   73 29.95        
Jun 18 01:20 Calm 9 Cloudy FEW065 SCT075 OVC100 72 70     94%   73 29.95        
Jun 18 01:00 Calm 8 Cloudy SCT070 OVC090 72 70     94%   73 29.95        
Jun 18 00:40 Calm 10 Cloudy SCT065 BKN075 OVC100 72 70     94%   73 29.95        
Jun 18 00:20 SE 3 6 Fog/Mist FEW043 FEW075 BKN100 72 70     94%   73 29.96        
Jun 18 00:00 ESE 3 6 Fog/Mist FEW033 SCT042 BKN050 72 70     94%   73 29.97        
Jun 17 23:40 Calm 7 Mostly Cloudy FEW033 SCT048 BKN110 72 70     94%   73 29.98        
Jun 17 23:20 Calm 10 Cloudy FEW034 BKN100 OVC120 72 70     94%   73 29.99        
Jun 17 23:00 E 3 7 Mostly Cloudy FEW049 SCT075 BKN100 72 70     94%   73 29.99        
Jun 17 22:40 ESE 3 9 Mostly Cloudy FEW046 SCT070 BKN100 72 70     94%   73 29.99        
Jun 17 22:20 Calm 10 Cloudy FEW036 FEW046 OVC100 72 70     94%   73 30        
Jun 17 22:00 S 5 9 Cloudy FEW029 BKN034 OVC110 72 70     94%   73 30        
Jun 17 21:40 SSW 5 7 Cloudy FEW030 BKN034 OVC065 72 70     94%   73 30        
Jun 17 21:20 SSW 9 7 Cloudy FEW009 BKN055 OVC095 72 70     94%   73 30        
Jun 17 21:00 SSW 8 9 Cloudy FEW028 SCT070 OVC095 73 70     89%   75 29.98        
Jun 17 20:40 SSW 9 10 Cloudy FEW046 BKN090 OVC110 73 70     89%   75 29.97        
Jun 17 20:20 S 6 10 Cloudy FEW035 BKN045 OVC110 73 70     89%   75 29.98        
Jun 17 20:00 SSW 6 8 Mostly Cloudy FEW038 SCT049 BKN065 73 70     89%   75 29.97        
Jun 17 19:40 SSW 8 3 Haze FEW036 SCT050 BKN120 75 70     83%   76 29.96        
Jun 17 19:20 SW 5 10 Mostly Clear FEW120 77 70     78%   78 29.96        
Jun 17 19:00 W 8 9 Clear CLR 77 72     83%   78 29.95        
Jun 17 18:40 WNW 5 8 Clear CLR 77 72     83%   78 29.94        
Jun 17 18:20 SSW 7 8 Mostly Clear FEW120 79 72     79%   82 29.93        
Jun 17 18:00 SSW 7 4 Haze CLR 79 73     84%   82 29.92        
Jun 17 17:40 S 9 9 Clear CLR 81 73     79%   85 29.92        
Jun 17 17:20 WSW 5 7 Mostly Clear FEW060 82 72     70%   87 29.92        
Jun 17 17:00 Calm 10 Mostly Cloudy BKN060 84 70     62%   88 29.92        
Jun 17 16:40 NW 10 9 Mostly Cloudy SCT060 BKN070 84 70     62%   88 29.92        
Jun 17 16:20 SW 11 9 Clear CLR 90 68     49%   93 29.91        
Jun 17 16:00 SSW 13 9 Mostly Clear FEW044 FEW050 88 66     49%   90 29.91        
Jun 17 15:40 S 11 8 Partly Cloudy SCT045 SCT055 88 68     52%   91 29.92        
Jun 17 15:20 S 11 9 Mostly Clear FEW047 90 68     49%   93 29.93        
Jun 17 15:00 7 9 Clear CLR 90 66     46%   92 29.94        
Jun 17 14:40 SW 8 9 Clear CLR 90 66     46%   92 29.95        
Jun 17 14:20 WSW 11 8 Mostly Clear FEW046 FEW055 90 66     46%   92 29.96        
Jun 17 14:00 5 9 Partly Cloudy SCT046 SCT055 88 66     49%   90 29.97        
Jun 17 13:40 SW 8 10 Mostly Clear FEW047 88 66     49%   90 29.97        
Jun 17 13:20 S 9 9 Partly Cloudy SCT047 SCT055 88 66     49%   90 29.97        
Jun 17 13:00 SSW 8 9 Mostly Clear FEW045 88 68     52%   91 29.98        
Jun 17 12:40 SSW 9 5 Haze CLR 86 66     52%   88 29.98        
Jun 17 12:20 6 8 Clear CLR 86 66     52%   88 29.99        
Jun 17 12:00 Calm 9 Clear CLR 84 66     55%   87 29.99        
Jun 17 11:40 SW 7 9 Clear CLR 84 68     58%   87 29.99        
Jun 17 11:20 WSW 8 9 Clear CLR 82 66     58%   85 29.99        
Jun 17 11:00 SW 7 8 Clear CLR 82 66     58%   85 29.99        
Jun 17 10:35 SW 7 9 Clear CLR 81 68     66%   83 29.98        
Jun 17 10:15 SSW 7 10 Clear CLR 81 68     66%   83 29.99        
Jun 17 09:55 SW 7 9 Clear CLR 81 68     66%   83 29.99        
Jun 17 09:40 SW 6 9 Clear CLR 81 68     66%   83 29.99        
Jun 17 09:20 7 2.5 Haze CLR 81 68     66%   83 29.99        
Jun 17 09:00 SSW 7 9 Clear CLR 81 70     70%   84 29.99        
Jun 17 08:40 S 6 7 Clear CLR 79 70     74%   80 29.98        
Jun 17 08:15 Calm 8 Mostly Clear FEW110 77 70     78%   78 29.98        
Jun 17 07:55 SSW 5 8 Clear CLR 77 70     78%   78 29.98        
Jun 17 07:35 Calm 6 Haze FEW120 77 70     78%   78 29.97        
Jun 17 07:20 Calm 9 Mostly Clear FEW120 75 70     83%   76 29.97        
Jun 17 07:00 Calm 9 Clear CLR 73 70     89%   75 29.97        
Jun 17 06:35 Calm 6 Haze CLR 73 68     83%   74 29.96        
Jun 17 06:15 Calm 9 Clear CLR 72 68     88%   73 29.96        
Jun 17 06:00 Calm 10 Clear CLR 72 68     88%   73 29.95        
Jun 17 05:40 Calm 9 Clear CLR 72 68     88%   73 29.95        
Jun 17 05:20 Calm 10 Clear CLR 72 68     88%   73 29.94        
Jun 17 04:55 Calm 10 Mostly Clear FEW048 72 68     88%   73 29.93        
Jun 17 04:35 ENE 5 10 Partly Cloudy SCT049 SCT060 73 68     83%   74 29.92        
Jun 17 04:15 E 5 9 Partly Cloudy SCT046 73 68     83%   74 29.92        
May 15 00:35 Calm 10 Clear CLR 72 68     88%   73 29.93        
May 14 21:15 Calm 10 Clear CLR 81 68     66%   83 29.93        
May 14 20:35 Calm 10 Clear CLR 81 68     66%   83 29.92        
May 14 16:35 Calm 10 Mostly Cloudy BKN060 BKN070 91 63     38%   92 29.93        
May 14 16:15 SW 5 10 Mostly Clear FEW065 91 63     38%   92 29.94        
May 14 12:35 W 6 10 Clear CLR 88 64     46%   89 30.02        
May 14 12:15 NW 6 10 Clear CLR 88 66     49%   90 30.02        
May 14 11:35 NW 5 10 Clear CLR 86 66     52%   88 30.04        
May 14 10:55 WNW 8 10 Clear CLR 86 66     52%   88 30.04        
May 14 05:15 Calm 10 Clear CLR 64 63     94%     30.04        
May 14 01:15 Calm 10 Clear CLR 68 64     88%     30.01        
May 13 20:55 Calm 10 Clear CLR 77 66     69%   78 30.03        
May 13 16:15 6 10 Clear CLR 88 61     40%   88 30.01        
May 13 11:15 WNW 9 10 Clear CLR 86 63     46%   87 30.1        
May 13 10:15 W 8 10 Clear CLR 82 64     55%   84 30.11        
May 13 08:55 Calm 10 Clear CLR 77 64     65%   77 30.12        
May 13 08:15 Calm 10 Clear CLR 72 63     73%   72 30.12        
May 12 21:15 SSW 6 10 Clear CLR 72 63     73%   72 30.02        
Notice The following observation data may not be complete
May 12 20:15   10 Clear CLR          %              
Notice The following observation data may not be complete
May 12 18:55   10 Clear CLR          %              
May 12 15:55 W 7 10 Clear   88 61     40%   88 30.06        
May 12 13:15 6 10 Mostly Clear FEW050 86 61     43%   86 30.1        
May 12 09:35 W 8 10 Clear CLR 79 63     58%   79 30.15        
May 12 08:55 SW 7 10 Clear CLR 79 63     58%   79 30.14        
May 12 08:35 SSW 6 10 Clear   77 63     61%   77 30.13        
May 12 03:15 Calm 10 Clear CLR 66 61     83%     30.05        
May 12 01:15 Calm 10 Clear CLR 68 59     73%     30.04        
May 11 23:55 Calm 10 Clear CLR 72 59     65%   71 30.03        
May 11 23:35 Calm 10 Clear CLR 70 59     69%     30.03        
May 11 19:55 S 6 10 Clear CLR 79 61     54%   79 29.97        
May 11 19:35 SW 6 10 Clear CLR 79 61     54%   79 29.97        
May 11 13:15 SSW 11 10 Clear CLR 88 61     40%   88 30.05        
May 11 10:15 WSW 8 10 Clear CLR 82 61     48%   83 30.07